Temp
-9 -9 -9 -9 -9 -9 -9 -8 -8 -8 -8 -8 -8 -7 -7 -7 -7 -6 -6 -6 -6 -6 -6 -6 -6 -6 -6 -6 -6 -6 -6 -7 -7 -8 -9 -10 -8 -6 -6 -6 -6 -6 -7 -8 -7
-9 -9 -9 -9 -9 -9 -9 -8 -8 -9 -8 -8 -8 -7 -7 -7 -7 -7 -6 -6 -6 -7 -6 -6 -6 -6 -7 -6 -6 -6 -7 -7 -8 -8 -9 -8 -7 -7 -6 -6 -6 -6 -7 -8 -7
-10 -9 -9 -9 -9 -9 -9 -9 -9 -9 -9 -8 -8 -8 -8 -7 -7 -7 -7 -7 -6 -7 -6 -6 -7 -7 -7 -7 -7 -7 -7 -8 -8 -7 -7 -7 -7 -7 -6 -6 -6 -7 -7 -6 -7
-10 -10 -9 -9 -8 -8 -9 -9 -9 -9 -9 -8 -8 -8 -8 -7 -7 -7 -7 -7 -7 -7 -7 -7 -7 -7 -7 -7 -7 -7 -7 -7 -7 -7 -7 -7 -8 -7 -7 -6 -6 -7 -6 -6 -8
-10 -10 -10 -10 -10 -9 -9 -9 -9 -9 -9 -9 -8 -8 -8 -8 -8 -8 -8 -7 -7 -7 -7 -7 -7 -7 -7 -8 -8 -8 -8 -8 -8 -7 -7 -7 -8 -7 -7 -6 -6 -7 -6 -6 -7
-10 -10 -10 -10 -11 -10 -10 -9 -10 -10 -9 -9 -9 -9 -9 -9 -8 -8 -8 -8 -7 -7 -7 -7 -7 -7 -7 -7 -8 -7 -8 -8 -8 -8 -8 -8 -8 -8 -7 -7 -7 -7 -6 -6 -7
-10 -10 -10 -10 -10 -10 -10 -10 -10 -10 -10 -10 -9 -9 -9 -9 -8 -8 -8 -8 -8 -7 -7 -7 -7 -7 -7 -8 -7 -7 -8 -8 -8 -8 -8 -8 -8 -8 -8 -7 -7 -7 -7 -6 -6
-9 -9 -10 -10 -10 -10 -10 -10 -10 -10 -10 -9 -9 -9 -9 -9 -8 -8 -8 -8 -8 -8 -7 -7 -8 -8 -8 -8 -8 -8 -8 -8 -10 -8 -8 -8 -10 -7 -8 -8 -7 -7 -7 -7 -7
-10 -10 -10 -9 -9 -9 -9 -9 -9 -9 -9 -9 -9 -9 -9 -9 -8 -8 -8 -8 -8 -8 -8 -8 -8 -8 -8 -9 -9 -9 -10 -10 -11 -8 -8 -8 -10 -8 -8 -8 -8 -8 -8 -7 -7
-10 -10 -10 -10 -10 -10 -10 -10 -9 -9 -9 -9 -9 -9 -9 -9 -9 -9 -9 -9 -9 -9 -9 -9 -9 -9 -9 -10 -11 -10 -11 -11 -11 -10 -9 -9 -12 -8 -9 -8 -8 -8 -8 -8 -7
-10 -10 -10 -10 -10 -10 -10 -10 -10 -10 -10 -10 -10 -10 -9 -10 -10 -10 -9 -9 -9 -9 -9 -10 -10 -12 -12 -11 -10 -10 -10 -12 -12 -9 -10 -11 -11 -9 -9 -9 -9 -8 -8 -8 -8
-10 -10 -10 -10 -10 -10 -10 -10 -10 -10 -10 -10 -10 -10 -10 -10 -10 -10 -10 -10 -10 -11 -11 -11 -13 -11 -10 -10 -11 -11 -12 -12 -12 -11 -10 -12 -10 -9 -9 -9 -9 -9 -9 -9 -9
-11 -10 -10 -10 -10 -10 -10 -10 -11 -11 -11 -11 -11 -11 -11 -11 -11 -11 -11 -11 -11 -13 -12 -13 -13 -11 -11 -11 -11 -11 -13 -11 -13 -13 -10 -12 -13 -11 -10 -10 -10 -10 -10 -10 -9
-11 -11 -11 -11 -11 -10 -10 -11 -11 -11 -12 -11 -11 -12 -12 -13 -12 -12 -12 -13 -12 -13 -13 -13 -12 -11 -11 -12 -11 -11 -11 -11 -11 -11 -12 -12 -12 -12 -11 -12 -11 -11 -11 -11 -10
-11 -11 -11 -11 -11 -11 -11 -11 -11 -11 -11 -12 -12 -12 -12 -13 -13 -12 -12 -12 -13 -14 -13 -13 -12 -12 -12 -12 -11 -11 -11 -11 -11 -11 -11 -13 -13 -12 -12 -12 -11 -11 -12 -12 -12
-11 -11 -11 -11 -11 -11 -11 -11 -11 -12 -11 -12 -12 -12 -13 -13 -13 -13 -13 -13 -13 -13 -13 -14 -12 -12 -12 -12 -12 -12 -12 -12 -12 -12 -13 -12 -12 -12 -12 -12 -11 -12 -12 -12 -12
-11 -11 -11 -11 -11 -12 -12 -12 -12 -13 -12 -13 -12 -12 -14 -14 -13 -13 -13 -13 -13 -14 -13 -13 -12 -12 -12 -12 -12 -12 -13 -13 -13 -12 -12 -12 -12 -13 -13 -13 -13 -13 -12 -12 -12
-11 -11 -12 -12 -12 -12 -12 -12 -12 -13 -12 -13 -12 -13 -13 -13 -13 -13 -14 -14 -13 -13 -13 -14 -13 -13 -12 -13 -13 -13 -13 -13 -13 -12 -11 -13 -13 -13 -13 -13 -13 -13 -13 -13 -13
-11 -12 -12 -12 -12 -12 -12 -12 -13 -13 -13 -12 -13 -13 -14 -13 -13 -13 -13 -14 -14 -13 -13 -14 -14 -14 -13 -13 -13 -14 -13 -14 -13 -13 -13 -13 -13 -13 -14 -14 -13 -13 -13 -13 -13
-12 -12 -12 -12 -12 -12 -13 -12 -14 -13 -13 -13 -13 -15 -15 -14 -13 -14 -14 -14 -13 -13 -13 -14 -14 -14 -13 -13 -13 -14 -13 -14 -14 -14 -14 -13 -13 -13 -14 -14 -14 -14 -14 -14 -14
-12 -12 -12 -12 -13 -13 -13 -13 -14 -15 -13 -13 -13 -14 -15 -14 -14 -14 -15 -15 -13 -13 -14 -14 -14 -15 -14 -14 -14 -14 -14 -14 -14 -14 -14 -14 -14 -14 -15 -14 -14 -14 -14 -14 -14
-13 -13 -13 -13 -13 -13 -13 -15 -15 -14 -13 -13 -13 -13 -15 -14 -14 -14 -16 -15 -13 -14 -14 -14 -14 -14 -15 -14 -14 -14 -14 -14 -14 -15 -15 -15 -15 -15 -15 -15 -15 -15 -15 -15 -15
-14 -13 -13 -14 -14 -14 -16 -15 -15 -14 -14 -14 -14 -14 -14 -14 -14 -14 -15 -14 -14 -15 -15 -15 -15 -15 -15 -15 -15 -15 -14 -14 -15 -15 -15 -15 -15 -16 -15 -15 -15 -16 -15 -15 -15
-14 -15 -14 -14 -14 -14 -15 -14 -15 -16 -15 -15 -14 -14 -14 -15 -15 -15 -15 -15 -15 -15 -15 -15 -15 -15 -15 -15 -16 -16 -15 -15 -15 -15 -15 -16 -16 -17 -16 -15 -15 -16 -16 -16 -16
-15 -15 -15 -15 -15 -15 -15 -15 -15 -16 -15 -15 -15 -15 -15 -15 -17 -16 -16 -17 -15 -16 -16 -16 -15 -16 -15 -15 -16 -16 -16 -16 -15 -15 -16 -16 -16 -17 -17 -18 -17 -16 -16 -16 -16
-15 -15 -15 -15 -15 -15 -15 -15 -15 -16 -15 -15 -16 -16 -16 -17 -17 -17 -17 -18 -18 -16 -16 -16 -15 -16 -16 -16 -16 -17 -16 -16 -16 -16 -16 -16 -16 -16 -17 -17 -17 -17 -17 -16 -16
-16 -16 -16 -16 -16 -16 -16 -16 -15 -15 -16 -16 -16 -17 -16 -18 -18 -17 -18 -17 -17 -16 -17 -16 -16 -16 -17 -17 -18 -18 -18 -17 -17 -18 -18 -18 -18 -18 -18 -18 -17 -17 -17 -17 -17
Height
5857 5856 5856 5856 5857 5857 5857 5856 5854 5852 5853 5857 5859 5860 5860 5861 5861 5862 5862 5863 5862 5863 5864 5865 5866 5868 5870 5872 5874 5876 5878 5882 5885 5888 5889 5889 5890 5891 5891 5891 5890 5890 5889 5891 5890
5849 5849 5849 5850 5851 5852 5851 5850 5849 5849 5850 5851 5853 5854 5855 5856 5856 5857 5858 5858 5857 5858 5860 5861 5861 5864 5865 5867 5869 5871 5874 5878 5881 5879 5880 5883 5886 5887 5888 5887 5887 5886 5884 5886 5885
5842 5842 5842 5843 5844 5845 5845 5846 5845 5845 5845 5846 5847 5848 5849 5849 5850 5852 5852 5853 5852 5854 5855 5856 5857 5859 5861 5863 5865 5866 5869 5871 5872 5874 5876 5879 5881 5883 5884 5883 5882 5882 5881 5882 5881
5835 5834 5835 5835 5835 5836 5838 5839 5840 5840 5840 5841 5841 5842 5842 5843 5845 5846 5846 5847 5848 5849 5850 5851 5853 5855 5857 5859 5861 5862 5863 5864 5867 5869 5872 5875 5878 5879 5878 5877 5876 5879 5880 5879 5879
5831 5830 5828 5828 5827 5828 5828 5831 5833 5833 5834 5835 5835 5836 5836 5837 5838 5839 5840 5841 5842 5844 5846 5847 5849 5851 5853 5855 5858 5859 5859 5860 5862 5864 5867 5870 5873 5873 5874 5873 5877 5876 5876 5876 5877
5827 5826 5825 5824 5823 5822 5822 5822 5825 5826 5827 5828 5830 5830 5830 5832 5832 5833 5835 5836 5838 5839 5841 5842 5845 5847 5849 5851 5853 5855 5856 5857 5859 5860 5862 5865 5867 5868 5865 5871 5871 5872 5871 5872 5871
5823 5822 5821 5819 5819 5818 5818 5818 5819 5820 5821 5822 5824 5825 5825 5827 5827 5829 5830 5831 5833 5835 5837 5838 5841 5843 5846 5847 5849 5851 5853 5854 5855 5855 5857 5860 5861 5860 5863 5863 5866 5865 5867 5866 5867
5819 5818 5817 5816 5816 5815 5815 5815 5816 5816 5817 5818 5819 5820 5821 5822 5824 5825 5826 5826 5828 5830 5832 5834 5837 5839 5842 5844 5845 5847 5848 5850 5848 5850 5852 5856 5853 5854 5857 5857 5860 5860 5861 5860 5863
5815 5814 5812 5812 5811 5811 5811 5811 5811 5812 5813 5814 5815 5816 5818 5819 5820 5820 5821 5823 5825 5827 5828 5830 5832 5835 5837 5839 5841 5842 5845 5846 5842 5844 5845 5849 5843 5848 5850 5851 5853 5854 5854 5852 5856
5812 5811 5809 5808 5807 5807 5807 5807 5807 5808 5809 5810 5811 5813 5814 5814 5815 5816 5818 5820 5821 5823 5824 5827 5829 5831 5834 5837 5845 5846 5844 5842 5843 5835 5840 5841 5837 5841 5841 5843 5845 5846 5847 5848 5850
5810 5808 5806 5805 5804 5804 5803 5803 5805 5805 5805 5806 5808 5809 5809 5810 5811 5813 5815 5817 5819 5820 5821 5824 5827 5833 5829 5829 5831 5833 5836 5838 5835 5831 5835 5836 5830 5833 5834 5834 5836 5838 5840 5841 5841
5808 5805 5804 5803 5802 5801 5800 5800 5800 5802 5802 5802 5804 5805 5806 5807 5808 5809 5812 5814 5815 5816 5819 5823 5826 5821 5824 5826 5827 5828 5830 5834 5830 5826 5829 5827 5824 5826 5827 5828 5828 5829 5831 5832 5834
5805 5803 5802 5800 5800 5799 5798 5798 5798 5799 5800 5801 5802 5803 5804 5806 5805 5807 5809 5810 5812 5818 5818 5824 5819 5818 5819 5819 5821 5822 5824 5825 5826 5821 5823 5824 5823 5817 5819 5819 5821 5822 5823 5823 5825
5803 5801 5800 5799 5798 5797 5797 5797 5797 5798 5799 5799 5800 5800 5802 5803 5805 5805 5806 5809 5811 5816 5818 5819 5813 5814 5815 5815 5815 5816 5815 5817 5817 5817 5819 5820 5822 5810 5808 5812 5813 5813 5814 5816 5817
5800 5799 5798 5797 5796 5796 5796 5796 5796 5798 5799 5800 5800 5799 5800 5803 5803 5802 5804 5806 5810 5812 5812 5815 5809 5810 5811 5811 5810 5811 5810 5811 5811 5811 5812 5814 5814 5818 5804 5802 5803 5807 5807 5807 5807
5797 5796 5796 5795 5794 5794 5794 5794 5795 5798 5796 5798 5798 5797 5798 5800 5800 5800 5801 5803 5805 5806 5806 5807 5805 5805 5805 5806 5805 5805 5805 5805 5805 5806 5805 5807 5811 5816 5802 5796 5794 5799 5798 5798 5798
5793 5792 5791 5791 5792 5791 5791 5792 5793 5794 5796 5797 5795 5795 5796 5797 5797 5797 5798 5799 5801 5802 5802 5800 5800 5799 5800 5801 5800 5800 5801 5803 5806 5805 5804 5804 5806 5804 5797 5794 5791 5790 5790 5790 5790
5788 5788 5787 5787 5787 5787 5788 5788 5788 5794 5793 5790 5791 5791 5792 5792 5793 5793 5794 5796 5796 5797 5799 5801 5803 5790 5796 5795 5796 5795 5796 5798 5799 5803 5805 5796 5797 5794 5786 5790 5786 5784 5782 5781 5781
5782 5781 5782 5782 5781 5782 5783 5783 5785 5790 5790 5785 5786 5787 5788 5787 5788 5787 5789 5791 5793 5789 5791 5793 5796 5785 5788 5789 5790 5787 5791 5788 5790 5792 5792 5794 5787 5782 5779 5779 5777 5775 5773 5772 5771
5776 5775 5775 5775 5775 5776 5777 5779 5783 5778 5779 5780 5781 5784 5784 5786 5781 5782 5783 5782 5782 5783 5783 5783 5785 5779 5779 5782 5782 5782 5782 5784 5783 5783 5784 5787 5786 5777 5769 5770 5770 5767 5764 5763 5761
5769 5768 5768 5767 5767 5769 5770 5772 5775 5771 5772 5773 5774 5774 5775 5776 5775 5777 5778 5773 5774 5775 5777 5775 5777 5774 5775 5775 5776 5775 5775 5775 5775 5776 5776 5777 5779 5767 5763 5761 5760 5758 5756 5755 5753
5763 5761 5761 5759 5761 5761 5762 5765 5765 5762 5762 5764 5765 5766 5766 5767 5767 5769 5770 5767 5765 5767 5769 5766 5769 5769 5768 5766 5769 5767 5767 5767 5766 5769 5766 5764 5766 5758 5756 5753 5751 5748 5746 5746 5745
5756 5753 5753 5752 5753 5754 5757 5756 5754 5755 5754 5755 5756 5758 5758 5759 5759 5759 5759 5758 5758 5760 5759 5760 5761 5761 5763 5760 5758 5755 5758 5758 5757 5756 5757 5757 5760 5746 5746 5744 5741 5739 5737 5737 5736
5750 5747 5745 5744 5744 5745 5746 5748 5747 5748 5747 5747 5749 5748 5750 5751 5750 5751 5751 5749 5751 5751 5750 5751 5752 5753 5755 5758 5750 5745 5749 5748 5748 5746 5747 5747 5748 5738 5735 5731 5730 5728 5728 5727 5727
5743 5741 5739 5738 5735 5737 5737 5739 5739 5741 5737 5739 5740 5741 5742 5742 5741 5741 5743 5741 5741 5741 5742 5742 5743 5744 5742 5742 5742 5740 5738 5739 5737 5736 5735 5737 5734 5734 5729 5721 5717 5719 5718 5718 5718
5737 5734 5733 5732 5730 5730 5729 5730 5730 5731 5731 5732 5732 5734 5735 5735 5736 5738 5738 5735 5733 5730 5734 5732 5732 5732 5731 5731 5729 5726 5728 5729 5726 5726 5723 5723 5723 5721 5716 5713 5710 5709 5710 5709 5709
5731 5728 5727 5726 5725 5724 5723 5723 5723 5723 5725 5725 5725 5726 5728 5730 5730 5728 5729 5726 5725 5725 5722 5721 5721 5720 5718 5721 5721 5720 5721 5717 5716 5715 5714 5712 5714 5713 5709 5704 5701 5700 5701 5701 5700
Wind_Speed
37 35 35 33 30 27 27 26 24 24 24 28 33 28 28 27 25 23 22 21 23 20 19 19 18 19 19 20 21 24 25 22 23 20 21 17 20 16 15 14 13 13 18 15 12
35 34 31 30 30 28 25 25 22 19 23 24 26 26 27 25 23 22 23 23 22 20 20 20 19 19 18 19 20 22 23 21 23 27 26 27 22 18 16 13 13 12 17 17 15
35 36 36 34 32 30 27 24 24 22 23 24 25 26 25 24 25 25 27 24 22 21 20 20 19 18 18 18 18 20 19 26 32 32 31 29 23 19 17 18 18 16 19 14 15
23 25 33 36 36 34 32 28 26 26 25 26 28 29 29 29 30 29 29 25 22 21 19 19 19 18 17 16 18 20 21 26 28 29 30 29 24 20 22 24 26 19 19 19 14
18 17 18 18 22 26 28 32 30 28 26 27 27 27 27 26 26 24 23 22 20 20 19 19 19 18 17 17 18 19 22 24 25 27 29 31 25 25 26 28 21 23 23 24 16
21 21 19 18 18 17 20 27 32 30 30 29 26 23 22 22 20 20 20 20 19 20 19 18 19 19 19 19 19 21 21 21 23 25 27 28 29 29 33 24 25 24 26 25 26
19 18 17 17 15 13 13 13 16 22 23 22 20 20 20 19 18 19 18 18 18 19 19 18 18 17 18 19 20 19 21 22 22 23 23 25 28 30 30 30 26 28 26 29 29
21 20 19 18 16 16 16 16 14 15 17 18 18 18 18 18 18 17 16 17 18 18 17 17 17 17 17 17 17 18 19 20 21 22 23 21 23 32 29 31 28 30 29 30 30
17 17 17 17 18 19 17 16 16 17 18 17 17 17 18 16 13 13 14 15 15 14 14 15 15 15 15 13 13 15 11 12 24 23 25 22 28 30 30 29 28 28 30 33 29
15 15 14 14 14 16 15 14 15 16 16 16 15 15 15 15 14 13 13 12 12 11 11 10 10 10 11 3 3 11 7 17 14 26 18 21 26 28 28 29 30 30 31 33 31
14 13 12 12 12 12 12 11 13 14 13 14 14 13 13 13 12 13 12 12 12 11 9 7 3 3 25 20 24 31 18 11 17 26 18 19 30 25 26 30 29 31 31 32 34
13 12 11 10 10 10 10 10 11 10 9 10 11 11 10 11 11 12 12 12 11 7 7 4 8 27 15 15 16 19 13 9 22 27 18 22 27 26 28 29 29 29 29 30 31
12 11 9 9 9 8 6 7 9 8 8 8 7 7 8 9 9 9 8 7 6 7 6 6 24 15 14 16 16 16 15 20 17 23 22 21 24 30 29 30 30 30 30 31 32
12 10 9 6 6 7 6 6 5 4 4 6 6 7 7 7 9 9 6 7 7 6 10 13 17 15 13 15 17 17 23 19 22 23 18 19 15 38 34 32 32 33 33 33 34
12 10 8 6 4 3 4 5 5 5 9 13 9 7 9 8 13 9 9 9 8 11 14 10 18 15 16 19 19 20 22 22 22 23 22 22 21 23 39 39 37 31 32 38 39
14 12 11 9 7 5 4 4 7 11 10 14 15 9 9 12 14 13 12 11 14 17 17 17 18 19 21 19 20 20 19 19 18 19 21 18 21 22 29 32 31 27 31 35 40
15 15 13 13 11 9 8 8 11 10 18 17 16 12 11 15 16 15 15 16 15 14 15 24 23 21 21 20 20 18 17 13 16 13 17 16 19 24 32 38 37 32 31 33 35
18 16 16 15 15 14 12 12 12 13 13 24 14 14 15 18 19 19 20 18 23 20 18 18 19 33 13 20 19 21 20 16 17 16 12 23 24 31 38 28 33 34 35 35 33
19 19 19 18 17 17 17 17 13 13 20 25 19 18 16 21 20 20 20 20 19 21 21 18 18 34 24 22 20 24 18 24 23 24 26 26 31 37 41 37 34 36 37 38 38
20 20 19 21 21 20 20 18 16 27 30 23 21 16 15 18 23 22 19 24 28 24 23 25 24 33 27 22 21 22 25 21 19 21 22 24 23 31 37 36 32 34 37 37 37
20 21 19 21 23 23 22 18 19 29 27 27 26 24 23 23 26 19 18 30 27 26 25 29 24 31 26 25 20 24 24 25 26 25 23 24 24 30 37 44 39 36 37 35 35
19 21 18 23 24 23 24 19 29 31 29 29 29 29 27 28 30 28 22 28 33 29 26 32 28 28 25 31 27 30 29 28 28 20 23 26 27 34 40 43 40 41 39 34 33
21 22 20 22 23 22 19 24 31 29 31 30 31 31 33 32 33 32 31 34 32 29 32 31 30 30 26 33 31 34 31 30 30 30 30 29 25 37 40 41 41 37 36 34 32
21 18 19 19 22 24 28 27 20 25 29 32 30 33 31 30 33 31 32 35 32 33 35 34 33 34 30 25 24 38 36 33 32 34 31 27 24 36 39 40 38 37 36 34 33
19 18 17 17 19 19 24 26 28 22 30 30 29 29 27 29 26 28 28 29 31 32 33 34 34 32 34 34 36 41 38 34 36 35 34 32 31 30 35 37 38 33 33 32 33
20 17 16 15 14 14 16 17 20 23 29 24 26 25 24 25 25 21 22 24 26 31 28 32 32 32 34 33 35 36 36 32 36 35 36 35 34 32 34 36 37 34 32 32 32
19 18 15 14 13 12 13 14 15 18 19 21 23 21 24 22 25 23 23 28 28 30 32 33 31 31 33 27 28 32 30 29 32 31 32 31 27 25 31 35 32 34 32 31 32
Wind_Direction
273 273 274 271 267 270 274 279 281 274 255 253 263 271 269 271 271 272 279 280 281 275 261 255 250 246 243 240 240 239 238 227 230 236 237 239 247 248 246 252 252 256 253 257 243
272 271 271 268 267 270 272 278 280 264 251 264 265 268 268 266 267 277 282 279 276 271 260 252 251 245 241 239 240 241 233 222 225 228 227 235 243 241 237 228 233 235 247 243 248
267 266 266 268 270 270 269 269 269 265 258 257 261 263 264 268 270 278 282 275 271 267 261 253 248 242 241 241 237 231 222 211 227 236 238 239 243 240 231 227 226 241 246 229 241
290 279 270 267 269 270 262 259 257 254 254 259 263 266 268 272 275 278 276 269 264 262 255 250 245 245 240 237 231 226 218 225 236 241 242 241 243 240 232 228 230 238 248 256 241
302 297 294 283 271 269 260 250 250 252 256 263 267 272 274 272 271 268 267 262 256 253 247 243 241 242 237 232 231 226 225 229 236 244 242 241 242 240 242 239 243 247 246 249 238
292 288 288 288 283 275 268 254 249 251 258 266 270 268 267 265 263 262 259 254 250 248 245 239 240 242 242 236 232 235 238 242 245 246 244 242 244 245 249 254 249 251 247 246 253
292 291 287 282 275 269 270 266 254 252 254 257 257 259 261 262 262 261 255 250 248 245 243 241 240 242 244 244 242 246 248 251 253 253 252 243 247 250 253 252 254 255 254 250 252
290 286 280 276 274 267 267 265 257 253 251 252 253 255 256 256 255 256 253 250 247 246 244 243 243 243 244 249 245 247 249 253 262 252 253 250 253 245 247 252 251 255 254 252 250
296 292 283 277 272 268 265 261 257 255 254 255 255 252 252 255 257 256 255 254 252 248 246 247 245 244 243 246 255 256 250 240 259 257 257 252 248 253 250 251 250 248 253 254 247
299 292 287 281 275 270 265 257 253 252 252 251 251 251 252 252 255 255 254 254 253 248 241 239 237 240 236 208 278 244 232 246 230 267 250 257 243 260 262 256 252 251 249 255 255
303 297 291 285 276 269 262 257 252 249 250 250 253 252 250 252 253 253 250 247 248 245 237 230 195 153 209 213 212 217 242 218 250 259 257 233 242 260 260 261 257 255 253 251 252
309 299 293 290 282 271 260 253 248 248 243 245 246 246 247 250 245 241 241 237 235 235 235 241 190 228 247 239 234 234 247 258 255 272 263 271 267 262 260 260 260 258 257 254 254
311 311 303 287 281 276 266 252 245 240 239 237 240 241 233 232 237 228 216 221 216 203 209 193 233 259 257 263 257 254 257 235 252 268 281 264 266 284 272 270 267 263 262 261 257
310 307 304 299 282 268 252 236 224 211 214 238 228 229 228 211 217 236 219 194 209 205 235 225 253 263 264 264 260 256 256 266 260 265 269 269 259 269 281 277 272 271 270 268 266
301 295 296 298 279 263 245 223 201 163 182 237 245 233 217 198 236 247 242 226 185 253 232 260 266 268 266 261 271 266 273 270 270 270 266 249 257 259 272 277 271 271 267 263 265
293 288 282 278 274 256 236 217 201 172 248 234 251 229 225 224 235 249 248 235 227 232 257 239 271 266 266 269 268 272 274 278 282 281 266 262 240 260 268 265 282 274 268 263 261
291 282 276 268 262 253 238 230 217 197 225 260 240 236 219 238 238 242 252 257 259 274 285 292 277 267 272 275 272 273 273 280 281 280 289 244 228 233 248 256 279 282 277 274 270
287 280 272 264 257 251 243 237 236 217 262 253 244 234 231 243 238 244 244 240 253 245 230 250 280 281 266 272 265 275 265 251 245 234 265 269 258 252 261 270 268 276 278 277 274
289 279 270 266 257 248 244 242 249 219 232 244 244 245 246 249 242 251 249 243 239 252 257 250 255 264 277 271 268 267 263 257 262 249 254 251 267 270 279 271 272 276 276 278 277
283 276 268 260 257 252 246 241 214 238 234 248 247 245 237 255 258 256 253 256 250 257 259 255 252 269 272 269 264 260 267 269 272 272 258 262 266 266 272 275 280 279 277 276 276
288 275 265 258 253 250 248 242 247 254 240 245 244 243 251 242 249 247 246 252 260 257 256 257 255 263 268 268 263 272 266 264 263 257 259 264 262 261 266 276 285 282 278 275 274
300 284 272 259 255 250 247 248 240 244 254 251 249 249 249 253 256 254 244 254 261 262 257 255 259 254 281 267 270 265 266 266 270 272 272 268 258 261 267 275 280 277 275 272 267
307 295 279 264 256 253 254 248 253 251 254 253 253 251 253 256 259 260 256 257 267 260 258 262 260 262 265 279 277 271 267 266 270 269 266 264 267 269 274 280 281 276 269 268 261
310 299 291 273 260 252 232 232 239 261 250 256 256 257 258 258 260 258 263 265 261 261 263 262 260 263 257 233 255 271 275 274 272 269 272 269 272 279 283 282 279 272 266 268 264
311 299 289 280 275 260 253 248 250 246 265 255 258 261 263 261 264 266 263 268 268 264 264 264 266 265 266 263 259 264 269 273 277 274 270 270 268 263 265 275 283 274 270 267 269
322 310 295 287 278 271 262 255 251 245 254 263 255 256 257 261 263 261 270 267 269 279 267 271 271 271 269 269 268 269 268 270 270 273 274 274 272 277 275 273 276 275 268 267 269
321 317 300 292 281 275 270 259 252 249 249 248 248 252 248 247 258 257 260 264 270 274 278 281 278 274 272 273 274 267 267 273 273 270 270 266 274 266 273 280 275 266 266 270 272